TimeMDT,TemperatureF,Dew PointF,Humidity,Sea Level PressureIn,VisibilityMPH,Wind Direction,Wind SpeedMPH,Gust SpeedMPH,PrecipitationIn,Events,Conditions,WindDirDegrees,DateUTC
12:15 AM,21.2,15.8,80,30.22,10.0,East,4.6,-,N/A,,Clear,80,2013-04-01 06:15:00
12:35 AM,21.2,15.8,80,30.22,10.0,East,4.6,-,N/A,,Clear,100,2013-04-01 06:35:00
12:55 AM,21.2,15.8,80,30.22,10.0,East,4.6,-,N/A,,Clear,90,2013-04-01 06:55:00
1:15 AM,19.4,15.8,86,30.23,10.0,Calm,Calm,-,N/A,,Clear,0,2013-04-01 07:15:00
1:35 AM,19.4,15.8,86,30.23,10.0,Calm,Calm,-,N/A,,Clear,0,2013-04-01 07:35:00
1:55 AM,17.6,15.8,93,30.23,10.0,Calm,Calm,-,N/A,,Clear,0,2013-04-01 07:55:00
2:15 AM,17.6,14.0,86,30.23,10.0,Calm,Calm,-,N/A,,Clear,0,2013-04-01 08:15:00
2:55 AM,19.4,14.0,80,30.23,10.0,Calm,Calm,-,N/A,,Mostly Cloudy,0,2013-04-01 08:55:00
3:15 AM,19.4,15.8,86,30.22,10.0,Calm,Calm,-,N/A,,Mostly Cloudy,0,2013-04-01 09:15:00
3:35 AM,19.4,15.8,86,30.22,10.0,ENE,3.5,-,N/A,,Mostly Cloudy,70,2013-04-01 09:35:00
3:55 AM,19.4,15.8,86,30.22,10.0,NE,5.8,-,N/A,,Scattered Clouds,50,2013-04-01 09:55:00
4:15 AM,19.4,15.8,86,30.22,10.0,NE,5.8,-,N/A,,Mostly Cloudy,50,2013-04-01 10:15:00
4:35 AM,19.4,15.8,86,30.22,10.0,ENE,3.5,-,N/A,,Overcast,60,2013-04-01 10:35:00
4:55 AM,19.4,14.0,80,30.22,10.0,ENE,5.8,-,N/A,,Scattered Clouds,60,2013-04-01 10:55:00
5:15 AM,19.4,15.8,86,30.22,10.0,NE,5.8,-,N/A,,Clear,40,2013-04-01 11:15:00
5:35 AM,19.4,14.0,80,30.22,10.0,NE,5.8,-,N/A,,Clear,50,2013-04-01 11:35:00
5:55 AM,17.6,12.2,79,30.22,10.0,NE,5.8,-,N/A,,Clear,40,2013-04-01 11:55:00
6:15 AM,17.6,14.0,86,30.21,10.0,NE,5.8,-,N/A,,Clear,50,2013-04-01 12:15:00
6:35 AM,17.6,14.0,86,30.22,10.0,East,3.5,-,N/A,,Clear,80,2013-04-01 12:35:00
6:55 AM,17.6,14.0,86,30.22,10.0,ENE,4.6,-,N/A,,Clear,70,2013-04-01 12:55:00
7:15 AM,19.4,15.8,86,30.22,10.0,ENE,4.6,-,N/A,,Clear,60,2013-04-01 13:15:00
7:35 AM,19.4,17.6,93,30.22,10.0,NE,4.6,-,N/A,,Scattered Clouds,50,2013-04-01 13:35:00
7:55 AM,21.2,17.6,86,30.22,10.0,NE,4.6,-,N/A,,Partly Cloudy,50,2013-04-01 13:55:00